Weather History for Fort Hood, TX

Change the Weather History Date:

Friday, January 18, 2013

  Actual Average Record
Temperature  
Mean Temperature 48 °F -  
Max Temperature 62 °F 59 °F 84 °F (2000)
Min Temperature 35 °F 38 °F 28 °F (1997)
Degree Days  
Heating Degree Days 16    
Moisture  
Dew Point 33 °F    
Average Humidity 55    
Maximum Humidity 81    
Minimum Humidity 30    
Precipitation  
Precipitation 0.00 in - - ()
Sea Level Pressure  
Sea Level Pressure 30.42 in    
Wind  
Wind Speed 7 mph (SSE)    
Max Wind Speed 14 mph    
Max Gust Speed 20 mph    
Visibility 7 miles    
Events      
Averages and records for this station are not official NWS values.
T = Trace of Precipitation, MM = Missing Value Source: NWS Daily Summary

Daily Weather History Graph

Daily Weather History Graph

Search for Another Location

Airport:

Trip Planner

Search our weather history database for the weather conditions in past years. The results will help you decide how hot, cold, wet, or windy it might be!

Date:

Astronomy

Jan. 18, 2013 Rise Set
Actual Time 7:29 AM CST 5:54 PM CST
Civil Twilight 7:03 AM CST 6:20 PM CST
Nautical Twilight 6:33 AM CST 6:50 PM CST
Astronomical Twilight 6:04 AM CST 7:19 PM CST
Moon 11:41 AM CST (1/18) 12:15 AM CST (1/18)
Length of Visible Light 11h 17m
Length of Day
10h 25m
Waxing Crescent, 47% of the Moon is Illuminated
Jan 18
Waxing Crescent
Jan 18
First Quarter
Jan 26
Full
Feb 3
Last Quarter
Feb 10
New

Hourly Weather History & Observations

Time (CST) Temp. Windchill Dew Point Humidity Pressure Visibility Wind Dir Wind Speed Gust Speed Precip Events Conditions
12:55 AM 44.6 °F 40.2 °F 30.2 °F 57% 30.40 in 7.0 mi WNW 8.1 mph - N/A   Clear
1:55 AM 42.8 °F 38.0 °F 30.2 °F 61% 30.40 in 7.0 mi NW 8.1 mph - N/A   Clear
2:55 AM 39.2 °F 35.9 °F 30.2 °F 70% 30.51 in 7.0 mi NW 4.6 mph - N/A   Clear
3:55 AM 39.2 °F 37.0 °F 30.2 °F 70% 30.51 in 7.0 mi WNW 3.5 mph - N/A   Clear
4:55 AM 39.2 °F - 30.2 °F 70% 30.51 in 7.0 mi Calm Calm - N/A   Clear
6:55 AM 35.6 °F - 30.2 °F 81% 30.51 in 7.0 mi Calm Calm - N/A   Clear
7:55 AM 35.6 °F - 30.2 °F 81% 30.51 in 7.0 mi Calm Calm - N/A   Clear
8:55 AM 44.6 °F - 35.6 °F 71% 30.52 in 7.0 mi Calm Calm - N/A   Clear
9:55 AM 48.2 °F - 33.8 °F 58% 30.52 in 7.0 mi SSE 6.9 mph - N/A   Clear
10:55 AM 53.6 °F - 35.6 °F 51% 30.51 in 7.0 mi SSE 11.5 mph - N/A   Partly Cloudy
11:55 AM 57.2 °F - 35.6 °F 44% 30.46 in 7.0 mi SSE 13.8 mph - N/A   Clear
12:55 PM 60.8 °F - 33.8 °F 36% 30.40 in 7.0 mi SSE 13.8 mph 19.6 mph N/A   Clear
1:55 PM 62.6 °F - 33.8 °F 34% 30.37 in 7.0 mi SSE 11.5 mph 19.6 mph N/A   Partly Cloudy
2:55 PM 62.6 °F - 33.8 °F 34% 30.35 in 7.0 mi South 9.2 mph - N/A   Partly Cloudy
3:55 PM 62.6 °F - 30.2 °F 30% 30.33 in 7.0 mi SSE 6.9 mph - N/A   Partly Cloudy
4:55 PM 62.6 °F - 32.0 °F 32% 30.34 in 7.0 mi SE 9.2 mph - N/A   Partly Cloudy
5:55 PM 57.2 °F - 33.8 °F 41% 30.34 in 7.0 mi SE 11.5 mph - N/A   Partly Cloudy
6:55 PM 53.6 °F - 33.8 °F 47% 30.36 in 7.0 mi SSE 8.1 mph - N/A   Partly Cloudy
7:55 PM 51.8 °F - 33.8 °F 50% 30.33 in 7.0 mi SSE 4.6 mph - N/A   Partly Cloudy
8:55 PM 48.2 °F - 33.8 °F 58% 30.38 in 7.0 mi South 5.8 mph - N/A   Partly Cloudy
9:55 PM 46.4 °F 42.9 °F 33.8 °F 62% 30.35 in 7.0 mi South 6.9 mph - N/A   Scattered Clouds
10:55 PM 44.6 °F 41.4 °F 33.8 °F 66% 30.34 in 7.0 mi SSE 5.8 mph - N/A   Scattered Clouds
11:55 PM 42.8 °F 38.0 °F 33.8 °F 70% 30.31 in 7.0 mi SSE 8.1 mph - N/A   Scattered Clouds